Terug naar catalogus

SL-23 DEB

LostHEO
NORAD 43385·DEBRIS·🇷🇺 Russia

Gelanceerd Feb 26, 2009 vanaf Baikonur Cosmodrome

Loading…

Volgende Passages (komende 24 uur)

TLE

VerouderdSource: Space-Track

Epoch: Feb 18, 2025, 05:46 UTC

1 43385U 09009D   25049.24029079 -.00000114  00000-0  00000-0 0  9991
2 43385  34.7773 327.1904 6947111 106.0333   1.5684  2.21230851 93816

Volg SL-23 DEB in realtime met AllMySat

Download on the App Store